Dewpoint
56 56 56 56 56 55 54 52 50 50 53 54 55 56 55 56 56 56 55 55 55 55 55 54 54 54 54 54 54 54 54 53 51 50 52 53 51 52 52 52 53 52 52
56 56 56 56 56 55 55 55 53 51 51 53 54 55 55 55 55 55 54 54 54 54 54 54 53 53 53 53 54 53 53 53 52 50 51 52 51 53 53 52 53 53 53
55 56 56 56 56 55 55 55 55 53 52 51 52 53 54 55 55 54 53 53 52 52 52 52 52 53 53 53 53 53 53 53 53 53 52 53 53 52 52 51 53 52 51
55 55 55 55 55 55 56 56 55 55 55 54 53 53 53 53 54 54 53 53 52 51 51 52 52 52 52 52 52 53 53 53 53 53 53 53 54 53 51 52 50 50 50
55 55 54 55 55 55 55 55 56 55 54 54 55 55 54 54 53 53 53 53 52 51 51 52 52 51 48 50 52 52 53 52 52 52 53 53 53 45 47 51 49 51 42
54 55 56 55 55 55 54 54 54 55 55 55 54 54 55 54 48 46 50 53 52 51 51 51 51 48 47 44 44 44 49 51 52 52 52 52 52 53 51 50 50 38 39
55 54 54 55 55 55 55 55 54 55 55 55 55 55 54 54 46 44 43 52 52 52 52 52 51 51 47 51 45 42 42 39 41 51 52 53 52 53 51 38 36 35 33
46 47 47 47 49 52 56 55 55 55 55 55 55 55 55 55 45 44 42 50 52 53 53 53 52 52 51 51 50 45 41 35 36 37 40 40 36 38 39 38 36 32 32
42 42 43 44 45 47 49 49 54 56 55 56 56 55 55 55 44 44 44 52 52 53 53 53 52 52 49 45 47 38 32 32 34 35 34 34 34 34 36 35 33 33 29
37 37 37 38 40 42 44 44 45 47 52 55 46 38 35 38 35 36 39 50 51 50 41 37 35 38 39 39 48 37 31 29 30 29 29 30 30 31 31 31 32 29 29
33 32 31 32 34 35 38 39 40 43 40 37 34 33 32 32 33 34 35 38 41 34 33 32 33 34 34 33 33 31 29 30 29 29 28 28 28 28 28 28 28 28 27
31 30 29 29 29 30 31 33 36 37 35 34 32 30 30 29 31 32 32 33 33 31 30 31 31 31 31 31 30 30 30 29 28 27 26 25 25 25 27 27 28 28 28
29 28 28 28 28 28 29 30 30 32 31 30 29 29 28 29 28 29 30 30 30 28 29 29 30 30 29 28 29 29 29 28 26 24 23 24 25 26 27 27 27 27 26
29 27 27 27 27 28 28 28 29 28 28 28 28 27 27 27 27 28 28 28 28 27 27 26 26 26 25 25 25 25 24 25 24 23 22 24 24 23 22 23 21 20 20
27 27 27 26 26 25 26 28 28 30 30 28 28 28 26 26 28 30 28 27 28 27 27 26 24 23 22 22 22 22 23 22 21 21 21 20 19 19 17 18 17 17 16
26 26 27 26 25 24 23 24 28 29 30 30 30 29 29 30 30 30 30 29 28 26 23 21 21 21 19 19 19 18 19 19 19 18 18 17 16 15 14 14 14 13 12
26 25 25 24 24 23 23 22 21 22 24 26 27 27 28 28 27 27 26 25 25 22 19 18 18 17 17 18 17 17 16 17 18 15 13 13 13 13 13 11 10 9 9
23 22 22 22 22 21 21 22 21 19 17 17 21 23 24 24 24 24 22 19 17 17 17 16 16 16 16 16 16 15 13 13 12 12 10 10 10 10 9 8 8 5 7
23 22 21 20 19 18 18 18 17 17 16 16 16 16 18 20 19 19 19 16 15 14 14 13 13 13 12 12 11 11 10 9 8 7 6 4 -1 4 3 5 4 3 4
19 20 19 18 17 16 16 16 16 15 14 14 14 14 14 13 10 10 11 11 11 11 11 10 9 9 8 8 7 7 6 5 4 4 -0 -3 -6 0 -1 1 1 -0 4
18 18 17 18 19 18 17 16 15 14 12 11 11 13 12 10 8 8 7 7 7 7 7 6 4 2 2 2 3 1 -1 -2 -2 -4 -4 -3 -12 -4 1 -0 0 3 4
18 17 16 15 15 16 15 14 13 12 11 10 9 9 8 8 7 7 6 4 4 6 5 3 3 3 1 -1 -2 -8 -8 -13 -12 -10 -11 -8 -6 -6 -5 -6 -8 -10 -2
14 13 13 14 13 11 12 12 10 9 8 8 8 7 6 4 4 3 2 -2 -1 -2 -2 -2 -3 -4 -7 -12 -10 -8 -9 -12 -13 -17 -19 -19 -11 -12 -14 -13 -9 -11 -8
12 11 11 9 9 8 8 7 7 6 6 6 6 5 4 2 -3 -6 -8 -10 -10 -8 -9 -13 -9 -8 -7 -17 -16 -11 -8 -17 -15 -16 -21 -19 -14 -11 -15 -11 -9 -11 -10
8 7 6 5 3 -1 -1 1 2 -1 -1 -3 1 -0 0 1 -6 -14 -15 -11 -8 -10 -6 -7 -8 -7 -9 -12 -10 -9 -12 -12 -17 -15 -18 -18 -19 -20 -16 -12 -12 -8 -11
6 5 5 4 1 -2 -6 -7 -10 -11 -15 -15 -14 -15 -16 -8 -10 -17 -14 -12 -12 -10 -10 -10 -4 -6 -6 -7 -7 -9 -13 -12 -17 -16 -23 -17 -20 -19 -19 -18 -15 -13 -7
Lifted_Index
2 2 2 2 2 2 2 2 2 2 2 3 3 3 2 2 2 2 2 2 3 3 3 3 3 3 3 3 3 3 3 3 3 3 3 3 2 2 2 2 2 2 2
2 2 2 2 2 2 2 2 2 2 2 2 3 3 3 2 2 2 2 2 3 3 3 3 3 3 3 3 3 3 3 3 3 3 3 3 2 2 2 2 2 2 2
1 1 1 1 1 1 1 1 1 1 1 2 2 2 3 3 3 3 3 3 3 3 3 3 3 3 3 3 3 3 3 3 3 3 3 3 2 2 2 2 2 2 2
0 0 1 1 1 1 1 1 1 1 1 1 1 1 2 2 2 3 3 3 3 3 3 3 3 3 3 3 3 3 3 3 3 2 2 2 2 2 2 2 2 2 2
-1 -1 -0 0 0 0 0 1 1 0 0 0 0 0 1 1 1 2 2 2 2 2 3 3 3 3 3 3 3 2 2 2 2 2 2 2 2 2 2 1 2 2 2
-2 -1 -1 -0 -0 -0 -0 -0 0 0 0 0 0 0 0 0 0 0 1 1 1 1 1 1 2 2 2 2 2 2 2 2 2 2 2 1 1 1 2 2 2 2 2
-1 -1 -1 -1 -1 -1 -1 -1 -1 -0 -0 -0 0 0 -0 -0 -0 -0 0 0 1 0 0 0 1 1 1 1 1 1 1 1 1 1 1 1 1 1 1 2 2 2 2
-1 -1 -1 -1 -1 -1 -1 -1 -1 -1 -1 -1 -1 -1 -1 -1 -1 -0 -0 -0 0 -0 -0 -0 -0 -0 -0 0 0 0 0 0 0 0 0 0 1 1 1 2 3 4 4
1 0 -0 -1 -1 -1 -1 -1 -1 -1 -1 -1 -1 -1 -1 -1 -1 -1 -1 -1 -0 -0 -0 -0 -0 -0 -0 -1 -1 -0 -0 -0 0 0 0 1 2 3 4 5 5 6 6
2 2 2 1 0 -0 -1 -1 -1 -1 -1 -1 -1 -1 -1 -1 -1 -1 -1 -1 -1 -1 -1 -1 -0 -0 -0 -1 -1 -1 -0 0 1 2 2 4 6 8 10 10 10 10 9
4 4 4 3 3 2 1 1 -0 -1 -1 -1 -1 -1 -1 -1 -1 -1 -1 -1 -1 -1 -1 -0 1 1 1 1 0 1 2 3 4 6 7 9 11 13 14 15 15 14 14
4 4 5 5 5 4 3 2 1 1 0 -0 -1 -1 -1 -1 -0 0 0 0 -0 0 1 3 5 6 6 5 5 6 8 9 10 11 12 14 15 16 16 17 17 17 17
5 5 5 5 6 5 5 4 3 3 2 1 1 1 1 2 3 4 5 4 4 4 6 8 10 11 12 12 12 13 14 15 15 15 15 16 17 17 18 18 18 19 19
6 6 6 6 6 6 6 6 5 5 4 4 4 4 4 5 7 9 10 10 9 10 11 13 14 14 15 16 17 17 17 17 17 17 17 18 18 19 19 19 20 19 19
7 7 7 7 7 7 7 8 9 9 9 8 8 8 8 9 11 13 14 14 14 14 14 14 14 15 15 16 17 18 18 18 18 18 18 18 19 19 20 21 21 21 20
8 8 7 8 8 8 9 10 11 13 14 14 14 14 14 15 16 16 16 16 16 16 15 14 14 15 15 16 17 18 19 19 20 20 20 20 20 21 21 22 23 22 22
9 9 9 10 10 10 10 11 12 14 15 17 17 18 18 18 18 18 18 17 17 16 15 15 15 16 17 17 18 19 19 21 22 22 22 23 23 23 23 24 24 24 24
12 12 12 12 12 13 13 13 13 14 15 16 18 19 19 19 19 18 18 18 17 16 16 16 17 17 18 19 20 21 22 23 24 24 24 25 25 25 25 25 25 25 25
14 14 15 15 15 15 15 14 14 14 14 15 16 17 18 18 18 18 18 17 17 17 17 18 19 20 21 22 23 23 24 25 25 25 26 26 26 25 25 25 25 25 25
16 16 16 15 15 15 15 14 14 14 14 14 15 16 17 17 17 17 18 18 18 19 20 21 22 23 24 24 25 25 26 26 26 26 26 26 26 26 25 25 25 25 25
16 16 16 15 15 14 14 14 14 14 15 15 15 17 18 18 18 19 20 21 21 22 23 24 24 25 25 26 26 26 26 26 26 26 26 26 26 26 26 26 25 25 25
17 17 16 16 16 16 16 16 16 16 17 17 18 19 20 21 21 22 23 23 24 25 25 26 26 26 26 26 26 26 26 26 26 26 26 25 25 25 25 25 24 24 23
19 19 19 18 18 18 18 18 18 19 19 20 20 21 22 22 23 23 24 25 25 26 26 26 26 26 26 26 26 26 26 25 26 25 25 25 24 24 23 23 22 22 21
21 21 20 20 20 20 20 20 20 21 21 21 21 22 22 23 23 24 24 25 25 25 26 26 26 26 26 26 26 26 26 26 26 25 24 23 23 22 21 21 21 20 20
21 21 21 20 20 20 20 20 20 21 21 21 21 22 22 23 23 24 24 25 25 25 26 26 26 26 26 26 26 26 25 25 25 24 23 22 21 21 20 20 20 20 19
21 21 21 20 20 20 20 20 20 21 21 21 21 22 22 23 23 24 24 25 25 25 25 26 25 25 25 25 25 25 24 24 23 23 22 22 21 20 20 20 19 19 18